ROMMA est une association bénévole à but non lucratif. Votre soutien est indispensable : ADHERER à ROMMA ou FAIRE un DON

Chamrousse - (38, Isère)

Massif de Belledonne (1800 m)   Longitude: 05° 52' 28" E   Latitude: 45° 06' 28" N Station partenaire n°3
 

Détail journalier du     <<     >>

Température Precipitation Humidité Pression Vent Dir Rafale Dir. rafale
Heure (°C) (mm) (%) (hPa) (km/h) (km/h)
01:00 4.807210059NNE16NNE
02:00 4.407610052NNE13NNE
03:00 5.106810042NNE10NNE
04:00 4.207410042NNE11NNE
05:00 4.207210042NNE10NNE
06:00 4.207010038NNE15NNE
07:00 4.6070100306NNE
08:00 4.907610031NNE6NNE
09:00 5.308010034N15N
10:00 4.908810039NNO21NNO
11:00 4.8091100310NO24NNO
12:00 4.9091100313NO26N
13:00 4.90100100313NO26NNO
14:00 4.90100100316NO27NO
15:00 5.20100100318NO32NO
16:00 5.10100100316NO35NO
17:00 4.90100100321NO45NNO
18:00 4.80100100319NNO39N
19:00 4.90100100318NNO39NNO
20:00 4.90100100316NNO34N
21:00 4.90100100314N32NNO
22:00 4.90.2100100315NNO29NNO
23:00 4.22.8100100418N40N
minuit 4.22100100320N39N

Graphique du 19-05-2008

 

Serveur OMMA